sat.trackr.live / text

‹ back to catalog

STARLINK-32881

NORAD 62997 · 2025-031S

PAYLOAD ACTIVE UNKNOWN

§ Identity

Operator
Country
US
Launch date
2025-02-11
Launch site
AFETR
Launch vehicle
Mass (kg)
RCS (m²)

Purposes: comms

External: N2YO · Heavens-Above · Gunter

§ Orbital elements

Epoch: 2026-05-25T04:00:18.899424Z

Period
94.26 min
Inclination
43.0028°
Eccentricity
0.0001312
Mean motion
15.27612437 rev/d
Perigee alt
482.1 km
Apogee alt
483.9 km
Semi-major
6,861.1 km
B*
9.0927e-4
RAAN
71.2390°
Arg perigee
266.1274°
Mean anomaly
93.9428°
Rev number
7,279

§ Raw data

STARLINK-328811 62997U 25031S   26145.16688541  .00024868  00000+0  90927-3 0  99982 62997  43.0028  71.2390 0001312 266.1274  93.9428 15.27612437 72797

JSON: /api/v1/satellites/62997 · /tle

For live sub-satellite position, see the globe view (requires WebGL).

§ Visibility from observer

Set your observer location to see the next 7 days of passes ≥ 10°. The values pass through the URL so the page stays shareable.

No JS? Fill the form by hand. The geolocation button needs JavaScript.